Time,TemperatureF,DewpointF,PressureIn,WindDirection,WindDirectionDegrees,WindSpeedMPH,WindSpeedGustMPH,Humidity,HourlyPrecipIn,Conditions,Clouds,dailyrainin,SoftwareType,DateUTC
2013-01-10 00:01:00,50.1,29.0,30.34,NW,308,2.0,4.0,44,0.00,,,0.00,Wunderground v.1.15,2013-01-10 05:01:00,
2013-01-10 00:02:00,50.1,29.0,30.34,NW,326,2.0,4.0,44,0.00,,,0.00,Wunderground v.1.15,2013-01-10 05:02:00,
2013-01-10 00:06:00,50.4,28.7,30.34,NW,322,2.0,7.0,43,0.00,,,0.00,Wunderground v.1.15,2013-01-10 05:06:00,
2013-01-10 00:11:00,50.7,28.4,30.34,WNW,294,3.0,3.0,42,0.00,,,0.00,Wunderground v.1.15,2013-01-10 05:11:00,
2013-01-10 00:16:00,51.0,28.1,30.34,WNW,287,3.0,6.0,41,0.00,,,0.00,Wunderground v.1.15,2013-01-10 05:16:00,
2013-01-10 00:21:00,51.1,28.2,30.34,NW,312,2.0,2.0,41,0.00,,,0.00,Wunderground v.1.15,2013-01-10 05:21:00,
2013-01-10 00:26:00,51.3,27.8,30.34,West,280,2.0,2.0,40,0.00,,,0.00,Wunderground v.1.15,2013-01-10 05:26:00,
2013-01-10 00:31:00,51.3,28.4,30.35,WSW,258,1.0,1.0,41,0.00,,,0.00,Wunderground v.1.15,2013-01-10 05:31:00,
2013-01-10 00:36:00,51.3,28.4,30.35,NW,308,1.0,1.0,41,0.00,,,0.00,Wunderground v.1.15,2013-01-10 05:36:00,
2013-01-10 00:42:00,51.1,28.2,30.35,WSW,246,0.0,1.0,41,0.00,,,0.00,Wunderground v.1.15,2013-01-10 05:42:00,
2013-01-10 00:47:00,51.0,29.3,30.35,North,350,0.0,1.0,43,0.00,,,0.00,Wunderground v.1.15,2013-01-10 05:47:00,
2013-01-10 00:52:00,50.8,29.6,30.35,North,350,0.0,0.0,44,0.00,,,0.00,Wunderground v.1.15,2013-01-10 05:52:00,
2013-01-10 00:57:00,50.7,29.6,30.35,NNW,330,0.0,0.0,44,0.00,,,0.00,Wunderground v.1.15,2013-01-10 05:57:00,
2013-01-10 01:02:00,50.4,28.7,30.36,NW,323,0.0,0.0,43,0.00,,,0.00,Wunderground v.1.15,2013-01-10 06:02:00,
2013-01-10 01:07:00,50.1,29.0,30.36,WNW,284,0.0,0.0,44,0.00,,,0.00,Wunderground v.1.15,2013-01-10 06:07:00,
2013-01-10 01:12:00,49.8,29.3,30.36,WNW,292,0.0,0.0,45,0.00,,,0.00,Wunderground v.1.15,2013-01-10 06:12:00,
2013-01-10 01:17:00,49.5,29.0,30.36,WNW,287,0.0,0.0,45,0.00,,,0.00,Wunderground v.1.15,2013-01-10 06:17:00,
2013-01-10 01:22:00,49.2,29.3,30.36,West,280,0.0,0.0,46,0.00,,,0.00,Wunderground v.1.15,2013-01-10 06:22:00,
2013-01-10 01:28:00,48.9,29.5,30.36,WSW,246,0.0,0.0,47,0.00,,,0.00,Wunderground v.1.15,2013-01-10 06:28:00,
2013-01-10 01:33:00,48.6,29.3,30.37,West,278,0.0,4.0,47,0.00,,,0.00,Wunderground v.1.15,2013-01-10 06:33:00,
2013-01-10 01:38:00,48.3,29.5,30.37,WNW,296,0.0,1.0,48,0.00,,,0.00,Wunderground v.1.15,2013-01-10 06:38:00,
2013-01-10 01:43:00,48.0,29.2,30.37,WNW,298,0.0,1.0,48,0.00,,,0.00,Wunderground v.1.15,2013-01-10 06:43:00,
2013-01-10 01:48:00,47.9,29.1,30.38,WNW,298,0.0,0.0,48,0.00,,,0.00,Wunderground v.1.15,2013-01-10 06:48:00,
2013-01-10 01:53:00,47.9,29.6,30.38,NNW,347,0.0,0.0,49,0.00,,,0.00,Wunderground v.1.15,2013-01-10 06:53:00,
2013-01-10 01:59:00,47.7,30.0,30.38,NNW,346,0.0,0.0,50,0.00,,,0.00,Wunderground v.1.15,2013-01-10 06:59:00,
2013-01-10 02:05:00,47.6,30.3,30.38,WNW,301,0.0,0.0,51,0.00,,,0.00,Wunderground v.1.15,2013-01-10 07:05:00,
2013-01-10 02:11:00,47.4,30.2,30.38,NW,323,0.0,0.0,51,0.00,,,0.00,Wunderground v.1.15,2013-01-10 07:11:00,
2013-01-10 02:16:00,47.3,30.5,30.39,NNW,340,0.0,0.0,52,0.00,,,0.00,Wunderground v.1.15,2013-01-10 07:16:00,
2013-01-10 02:21:00,47.3,30.5,30.39,NNW,329,0.0,0.0,52,0.00,,,0.00,Wunderground v.1.15,2013-01-10 07:21:00,
2013-01-10 02:27:00,47.3,31.0,30.39,WNW,292,0.0,0.0,53,0.00,,,0.00,Wunderground v.1.15,2013-01-10 07:27:00,
2013-01-10 02:32:00,47.3,31.0,30.39,NNW,329,0.0,1.0,53,0.00,,,0.00,Wunderground v.1.15,2013-01-10 07:32:00,
2013-01-10 02:37:00,47.3,31.0,30.39,North,353,1.0,1.0,53,0.00,,,0.00,Wunderground v.1.15,2013-01-10 07:37:00,
2013-01-10 02:42:00,47.3,31.0,30.39,WNW,289,0.0,1.0,53,0.00,,,0.00,Wunderground v.1.15,2013-01-10 07:42:00,
2013-01-10 02:47:00,47.4,31.1,30.39,WNW,295,0.0,1.0,53,0.00,,,0.00,Wunderground v.1.15,2013-01-10 07:47:00,
2013-01-10 02:52:00,47.4,31.1,30.39,NW,304,1.0,2.0,53,0.00,,,0.00,Wunderground v.1.15,2013-01-10 07:52:00,
2013-01-10 02:57:00,47.6,31.3,30.39,WNW,299,1.0,4.0,53,0.00,,,0.00,Wunderground v.1.15,2013-01-10 07:57:00,
2013-01-10 03:03:00,47.6,31.3,30.39,WNW,302,0.0,2.0,53,0.00,,,0.00,Wunderground v.1.15,2013-01-10 08:03:00,
2013-01-10 03:08:00,47.6,30.8,30.39,West,275,1.0,6.0,52,0.00,,,0.00,Wunderground v.1.15,2013-01-10 08:08:00,
2013-01-10 03:13:00,47.7,30.9,30.39,West,275,1.0,1.0,52,0.00,,,0.00,Wunderground v.1.15,2013-01-10 08:13:00,
2013-01-10 03:18:00,47.7,30.9,30.40,WNW,301,1.0,1.0,52,0.00,,,0.00,Wunderground v.1.15,2013-01-10 08:18:00,
2013-01-10 03:23:00,47.6,30.8,30.40,West,274,1.0,8.0,52,0.00,,,0.00,Wunderground v.1.15,2013-01-10 08:23:00,
2013-01-10 03:29:00,47.7,30.9,30.40,West,274,1.0,8.0,52,0.00,,,0.00,Wunderground v.1.15,2013-01-10 08:29:00,
2013-01-10 03:34:00,47.6,30.8,30.40,WNW,282,0.0,1.0,52,0.00,,,0.00,Wunderground v.1.15,2013-01-10 08:34:00,
2013-01-10 03:39:00,47.6,30.8,30.40,NW,320,0.0,1.0,52,0.00,,,0.00,Wunderground v.1.15,2013-01-10 08:39:00,
2013-01-10 03:44:00,47.4,30.6,30.40,WNW,299,0.0,0.0,52,0.00,,,0.00,Wunderground v.1.15,2013-01-10 08:44:00,
2013-01-10 03:50:00,47.3,30.5,30.40,NNW,342,0.0,0.0,52,0.00,,,0.00,Wunderground v.1.15,2013-01-10 08:50:00,
2013-01-10 03:56:00,47.1,30.4,30.40,WSW,253,0.0,0.0,52,0.00,,,0.00,Wunderground v.1.15,2013-01-10 08:56:00,
2013-01-10 04:01:00,47.0,30.3,30.40,NNW,336,0.0,0.0,52,0.00,,,0.00,Wunderground v.1.15,2013-01-10 09:01:00,
2013-01-10 04:07:00,46.8,30.1,30.40,NW,318,0.0,0.0,52,0.00,,,0.00,Wunderground v.1.15,2013-01-10 09:07:00,
2013-01-10 04:12:00,46.7,30.0,30.40,NW,326,0.0,0.0,52,0.00,,,0.00,Wunderground v.1.15,2013-01-10 09:12:00,
2013-01-10 04:17:00,46.5,30.3,30.40,NW,306,0.0,0.0,53,0.00,,,0.00,Wunderground v.1.15,2013-01-10 09:17:00,
2013-01-10 04:22:00,46.4,30.2,30.40,WNW,296,0.0,0.0,53,0.00,,,0.00,Wunderground v.1.15,2013-01-10 09:22:00,
2013-01-10 04:27:00,46.2,30.0,30.40,North,0,0.0,1.0,53,0.00,,,0.00,Wunderground v.1.15,2013-01-10 09:27:00,
2013-01-10 04:32:00,46.1,29.4,30.41,NNW,329,0.0,0.0,52,0.00,,,0.00,Wunderground v.1.15,2013-01-10 09:32:00,
2013-01-10 04:37:00,46.0,29.8,30.41,WSW,250,0.0,0.0,53,0.00,,,0.00,Wunderground v.1.15,2013-01-10 09:37:00,
2013-01-10 04:42:00,45.8,29.2,30.41,NNW,346,0.0,0.0,52,0.00,,,0.00,Wunderground v.1.15,2013-01-10 09:42:00,
2013-01-10 04:47:00,45.7,28.6,30.42,NW,308,0.0,0.0,51,0.00,,,0.00,Wunderground v.1.15,2013-01-10 09:47:00,
2013-01-10 04:52:00,45.7,29.1,30.42,NNW,347,0.0,0.0,52,0.00,,,0.00,Wunderground v.1.15,2013-01-10 09:52:00,
2013-01-10 04:58:00,45.5,28.9,30.42,NNW,347,0.0,0.0,52,0.00,,,0.00,Wunderground v.1.15,2013-01-10 09:58:00,
2013-01-10 05:03:00,45.4,28.8,30.42,NNW,347,0.0,0.0,52,0.00,,,0.00,Wunderground v.1.15,2013-01-10 10:03:00,
2013-01-10 05:08:00,45.2,29.1,30.42,NNW,347,0.0,0.0,53,0.00,,,0.00,Wunderground v.1.15,2013-01-10 10:08:00,
2013-01-10 05:14:00,44.9,28.8,30.43,NNW,347,0.0,0.0,53,0.00,,,0.00,Wunderground v.1.15,2013-01-10 10:14:00,
2013-01-10 05:19:00,44.6,28.5,30.43,NNW,347,0.0,0.0,53,0.00,,,0.00,Wunderground v.1.15,2013-01-10 10:19:00,
2013-01-10 05:24:00,44.3,28.7,30.43,NNW,347,0.0,0.0,54,0.00,,,0.00,Wunderground v.1.15,2013-01-10 10:24:00,
2013-01-10 05:29:00,44.1,28.5,30.43,NNW,347,0.0,0.0,54,0.00,,,0.00,Wunderground v.1.15,2013-01-10 10:29:00,
2013-01-10 05:34:00,43.6,28.9,30.43,NNW,347,0.0,0.0,56,0.00,,,0.00,Wunderground v.1.15,2013-01-10 10:34:00,
2013-01-10 05:40:00,43.2,28.5,30.43,NNW,347,0.0,0.0,56,0.00,,,0.00,Wunderground v.1.15,2013-01-10 10:40:00,
2013-01-10 05:46:00,42.9,28.7,30.44,NNW,347,0.0,0.0,57,0.00,,,0.00,Wunderground v.1.15,2013-01-10 10:46:00,
2013-01-10 05:51:00,42.5,28.8,30.44,NW,322,0.0,0.0,58,0.00,,,0.00,Wunderground v.1.15,2013-01-10 10:51:00,
2013-01-10 05:57:00,42.2,28.5,30.44,NNE,20,0.0,0.0,58,0.00,,,0.00,Wunderground v.1.15,2013-01-10 10:57:00,
2013-01-10 06:02:00,41.9,28.2,30.45,North,0,0.0,0.0,58,0.00,,,0.00,Wunderground v.1.15,2013-01-10 11:02:00,
2013-01-10 06:07:00,41.8,28.5,30.45,WNW,302,0.0,0.0,59,0.00,,,0.00,Wunderground v.1.15,2013-01-10 11:07:00,
2013-01-10 06:13:00,41.6,28.3,30.45,WNW,302,0.0,0.0,59,0.00,,,0.00,Wunderground v.1.15,2013-01-10 11:13:00,
2013-01-10 06:18:00,41.6,28.3,30.46,WNW,302,0.0,0.0,59,0.00,,,0.00,Wunderground v.1.15,2013-01-10 11:18:00,
2013-01-10 06:23:00,41.5,28.2,30.46,WNW,302,0.0,0.0,59,0.00,,,0.00,Wunderground v.1.15,2013-01-10 11:23:00,
2013-01-10 06:28:00,41.3,28.0,30.46,WNW,302,0.0,0.0,59,0.00,,,0.00,Wunderground v.1.15,2013-01-10 11:28:00,
2013-01-10 06:34:00,41.1,27.9,30.47,WNW,302,0.0,0.0,59,0.00,,,0.00,Wunderground v.1.15,2013-01-10 11:34:00,
2013-01-10 06:39:00,40.9,27.7,30.47,WNW,302,0.0,0.0,59,0.00,,,0.00,Wunderground v.1.15,2013-01-10 11:39:00,
2013-01-10 06:44:00,40.8,28.0,30.47,WNW,302,0.0,0.0,60,0.00,,,0.00,Wunderground v.1.15,2013-01-10 11:44:00,
2013-01-10 06:49:00,40.6,27.8,30.47,WNW,302,0.0,0.0,60,0.00,,,0.00,Wunderground v.1.15,2013-01-10 11:49:00,
2013-01-10 06:56:00,40.3,27.9,30.47,WNW,302,0.0,0.0,61,0.00,,,0.00,Wunderground v.1.15,2013-01-10 11:56:00,
2013-01-10 07:01:00,40.1,27.7,30.47,WNW,302,0.0,0.0,61,0.00,,,0.00,Wunderground v.1.15,2013-01-10 12:01:00,
2013-01-10 07:07:00,39.9,27.5,30.47,WNW,302,0.0,0.0,61,0.00,,,0.00,Wunderground v.1.15,2013-01-10 12:07:00,
2013-01-10 07:12:00,39.8,27.4,30.47,WNW,302,0.0,0.0,61,0.00,,,0.00,Wunderground v.1.15,2013-01-10 12:12:00,
2013-01-10 07:17:00,39.6,27.6,30.48,WNW,302,0.0,0.0,62,0.00,,,0.00,Wunderground v.1.15,2013-01-10 12:17:00,
2013-01-10 07:22:00,39.5,27.5,30.48,WNW,302,0.0,0.0,62,0.00,,,0.00,Wunderground v.1.15,2013-01-10 12:22:00,
2013-01-10 07:27:00,39.2,27.7,30.48,WNW,302,0.0,0.0,63,0.00,,,0.00,Wunderground v.1.15,2013-01-10 12:27:00,
2013-01-10 07:32:00,39.1,27.6,30.49,WNW,302,0.0,0.0,63,0.00,,,0.00,Wunderground v.1.15,2013-01-10 12:32:00,
2013-01-10 07:37:00,38.8,27.3,30.49,WNW,302,0.0,0.0,63,0.00,,,0.00,Wunderground v.1.15,2013-01-10 12:37:00,
2013-01-10 07:42:00,38.5,27.4,30.49,WNW,302,0.0,0.0,64,0.00,,,0.00,Wunderground v.1.15,2013-01-10 12:42:00,
2013-01-10 07:47:00,38.3,27.2,30.51,WNW,302,0.0,0.0,64,0.00,,,0.00,Wunderground v.1.15,2013-01-10 12:47:00,
2013-01-10 07:52:00,38.2,27.5,30.51,WNW,302,0.0,0.0,65,0.00,,,0.00,Wunderground v.1.15,2013-01-10 12:52:00,
2013-01-10 07:57:00,38.0,27.3,30.51,NW,320,0.0,1.0,65,0.00,,,0.00,Wunderground v.1.15,2013-01-10 12:57:00,
2013-01-10 08:03:00,38.0,27.3,30.51,NW,311,0.0,0.0,65,0.00,,,0.00,Wunderground v.1.15,2013-01-10 13:03:00,
2013-01-10 08:08:00,38.2,27.5,30.51,NW,311,0.0,0.0,65,0.00,,,0.00,Wunderground v.1.15,2013-01-10 13:08:00,
2013-01-10 08:13:00,38.5,27.7,30.51,NNW,347,0.0,0.0,65,0.00,,,0.00,Wunderground v.1.15,2013-01-10 13:13:00,
2013-01-10 08:18:00,38.9,27.8,30.52,NNW,337,0.0,0.0,64,0.00,,,0.00,Wunderground v.1.15,2013-01-10 13:18:00,
2013-01-10 08:23:00,39.3,27.4,30.52,WNW,287,0.0,0.0,62,0.00,,,0.00,Wunderground v.1.15,2013-01-10 13:23:00,
2013-01-10 08:29:00,39.9,27.5,30.53,NNW,329,0.0,2.0,61,0.00,,,0.00,Wunderground v.1.15,2013-01-10 13:29:00,
2013-01-10 08:34:00,40.5,27.7,30.53,NW,304,1.0,1.0,60,0.00,,,0.00,Wunderground v.1.15,2013-01-10 13:34:00,
2013-01-10 08:39:00,40.9,27.7,30.53,NNW,335,0.0,1.0,59,0.00,,,0.00,Wunderground v.1.15,2013-01-10 13:39:00,
2013-01-10 08:44:00,41.3,28.0,30.54,NNE,27,0.0,1.0,59,0.00,,,0.00,Wunderground v.1.15,2013-01-10 13:44:00,
2013-01-10 08:51:00,41.8,28.1,30.54,NW,322,1.0,1.0,58,0.00,,,0.00,Wunderground v.1.15,2013-01-10 13:51:00,
2013-01-10 08:56:00,42.2,28.0,30.54,NNW,344,0.0,1.0,57,0.00,,,0.00,Wunderground v.1.15,2013-01-10 13:56:00,
2013-01-10 09:01:00,42.5,27.9,30.54,NW,305,0.0,0.0,56,0.00,,,0.00,Wunderground v.1.15,2013-01-10 14:01:00,
2013-01-10 09:07:00,43.2,28.1,30.54,NW,306,0.0,0.0,55,0.00,,,0.00,Wunderground v.1.15,2013-01-10 14:07:00,
2013-01-10 09:12:00,43.8,28.2,30.54,NNW,342,0.0,1.0,54,0.00,,,0.00,Wunderground v.1.15,2013-01-10 14:12:00,
2013-01-10 09:17:00,44.2,28.1,30.55,NW,315,0.0,1.0,53,0.00,,,0.00,Wunderground v.1.15,2013-01-10 14:17:00,
2013-01-10 09:22:00,44.8,27.8,30.55,WNW,285,0.0,0.0,51,0.00,,,0.00,Wunderground v.1.15,2013-01-10 14:22:00,
2013-01-10 09:27:00,44.9,27.8,30.55,North,354,0.0,0.0,51,0.00,,,0.00,Wunderground v.1.15,2013-01-10 14:27:00,
2013-01-10 09:32:00,45.2,28.6,30.55,North,356,0.0,0.0,52,0.00,,,0.00,Wunderground v.1.15,2013-01-10 14:32:00,
2013-01-10 09:37:00,45.4,28.3,30.55,North,357,1.0,2.0,51,0.00,,,0.00,Wunderground v.1.15,2013-01-10 14:37:00,
2013-01-10 09:42:00,45.5,27.9,30.55,WNW,301,0.0,0.0,50,0.00,,,0.00,Wunderground v.1.15,2013-01-10 14:42:00,
2013-01-10 09:48:00,45.7,28.6,30.56,NNW,344,0.0,1.0,51,0.00,,,0.00,Wunderground v.1.15,2013-01-10 14:48:00,
2013-01-10 09:53:00,46.4,28.8,30.56,NW,313,1.0,1.0,50,0.00,,,0.00,Wunderground v.1.15,2013-01-10 14:53:00,
2013-01-10 09:58:00,46.7,28.0,30.56,NW,305,1.0,1.0,48,0.00,,,0.00,Wunderground v.1.15,2013-01-10 14:58:00,
2013-01-10 10:04:00,46.8,28.1,30.57,NW,313,0.0,6.0,48,0.00,,,0.00,Wunderground v.1.15,2013-01-10 15:04:00,
2013-01-10 10:09:00,46.8,28.1,30.57,NNW,329,1.0,6.0,48,0.00,,,0.00,Wunderground v.1.15,2013-01-10 15:09:00,
2013-01-10 10:15:00,46.8,28.1,30.57,North,349,1.0,1.0,48,0.00,,,0.00,Wunderground v.1.15,2013-01-10 15:15:00,
2013-01-10 10:20:00,47.0,28.8,30.57,NNE,13,1.0,1.0,49,0.00,,,0.00,Wunderground v.1.15,2013-01-10 15:20:00,
2013-01-10 10:26:00,47.6,28.3,30.57,North,0,0.0,1.0,47,0.00,,,0.00,Wunderground v.1.15,2013-01-10 15:26:00,
2013-01-10 10:31:00,47.6,28.3,30.57,NW,325,0.0,0.0,47,0.00,,,0.00,Wunderground v.1.15,2013-01-10 15:31:00,
2013-01-10 10:36:00,47.9,28.1,30.57,North,354,1.0,2.0,46,0.00,,,0.00,Wunderground v.1.15,2013-01-10 15:36:00,
2013-01-10 10:41:00,47.9,27.6,30.57,West,275,2.0,2.0,45,0.00,,,0.00,Wunderground v.1.15,2013-01-10 15:41:00,
2013-01-10 10:46:00,48.0,29.2,30.56,North,10,2.0,4.0,48,0.00,,,0.00,Wunderground v.1.15,2013-01-10 15:46:00,
2013-01-10 10:52:00,48.2,28.4,30.56,West,267,1.0,1.0,46,0.00,,,0.00,Wunderground v.1.15,2013-01-10 15:52:00,
2013-01-10 10:57:00,48.5,28.6,30.56,WNW,294,0.0,1.0,46,0.00,,,0.00,Wunderground v.1.15,2013-01-10 15:57:00,
2013-01-10 11:02:00,48.3,29.0,30.55,WNW,294,1.0,6.0,47,0.00,,,0.00,Wunderground v.1.15,2013-01-10 16:02:00,
2013-01-10 11:07:00,48.6,28.2,30.55,WSW,258,1.0,6.0,45,0.00,,,0.00,Wunderground v.1.15,2013-01-10 16:07:00,
2013-01-10 11:12:00,48.8,28.4,30.55,NW,309,1.0,1.0,45,0.00,,,0.00,Wunderground v.1.15,2013-01-10 16:12:00,
2013-01-10 11:17:00,48.9,27.9,30.55,WNW,288,1.0,1.0,44,0.00,,,0.00,Wunderground v.1.15,2013-01-10 16:17:00,
2013-01-10 11:23:00,49.1,28.7,30.55,WNW,296,1.0,2.0,45,0.00,,,0.00,Wunderground v.1.15,2013-01-10 16:23:00,
2013-01-10 11:28:00,49.2,27.6,30.55,NW,323,2.0,8.0,43,0.00,,,0.00,Wunderground v.1.15,2013-01-10 16:28:00,
2013-01-10 11:33:00,49.5,27.9,30.54,NW,308,2.0,7.0,43,0.00,,,0.00,Wunderground v.1.15,2013-01-10 16:33:00,
2013-01-10 11:39:00,49.2,28.2,30.54,WNW,292,1.0,7.0,44,0.00,,,0.00,Wunderground v.1.15,2013-01-10 16:39:00,
2013-01-10 11:44:00,49.5,28.5,30.52,North,0,0.0,1.0,44,0.00,,,0.00,Wunderground v.1.15,2013-01-10 16:44:00,
2013-01-10 11:49:00,49.6,27.4,30.52,NNW,330,1.0,4.0,42,0.00,,,0.00,Wunderground v.1.15,2013-01-10 16:49:00,
2013-01-10 11:54:00,49.5,27.9,30.52,NW,306,1.0,4.0,43,0.00,,,0.00,Wunderground v.1.15,2013-01-10 16:54:00,
2013-01-10 11:59:00,49.8,28.2,30.52,NNW,346,1.0,4.0,43,0.00,,,0.00,Wunderground v.1.15,2013-01-10 16:59:00,
2013-01-10 12:06:00,49.8,27.6,30.52,North,0,1.0,2.0,42,0.00,,,0.00,Wunderground v.1.15,2013-01-10 17:06:00,
2013-01-10 12:11:00,49.8,28.7,30.52,North,0,1.0,1.0,44,0.00,,,0.00,Wunderground v.1.15,2013-01-10 17:11:00,
2013-01-10 12:16:00,50.1,27.9,30.51,North,353,2.0,7.0,42,0.00,,,0.00,Wunderground v.1.15,2013-01-10 17:16:00,
2013-01-10 12:22:00,50.4,28.1,30.51,North,350,1.0,2.0,42,0.00,,,0.00,Wunderground v.1.15,2013-01-10 17:22:00,
2013-01-10 12:27:00,50.4,28.1,30.51,NE,51,1.0,2.0,42,0.00,,,0.00,Wunderground v.1.15,2013-01-10 17:27:00,
2013-01-10 12:32:00,50.5,28.8,30.50,NNE,13,2.0,6.0,43,0.00,,,0.00,Wunderground v.1.15,2013-01-10 17:32:00,
2013-01-10 12:37:00,50.2,28.0,30.50,NNW,332,2.0,6.0,42,0.00,,,0.00,Wunderground v.1.15,2013-01-10 17:37:00,
2013-01-10 12:42:00,50.4,28.7,30.50,NNW,337,1.0,4.0,43,0.00,,,0.00,Wunderground v.1.15,2013-01-10 17:42:00,
2013-01-10 12:47:00,50.7,29.0,30.49,WNW,296,2.0,4.0,43,0.00,,,0.00,Wunderground v.1.15,2013-01-10 17:47:00,
2013-01-10 12:52:00,50.8,27.9,30.49,NW,316,1.0,7.0,41,0.00,,,0.00,Wunderground v.1.15,2013-01-10 17:52:00,
2013-01-10 12:57:00,51.3,27.8,30.49,North,0,1.0,7.0,40,0.00,,,0.00,Wunderground v.1.15,2013-01-10 17:57:00,
2013-01-10 13:03:00,51.3,27.8,30.49,NNE,16,1.0,8.0,40,0.00,,,0.00,Wunderground v.1.15,2013-01-10 18:03:00,
2013-01-10 13:08:00,51.3,28.4,30.49,NW,322,2.0,8.0,41,0.00,,,0.00,Wunderground v.1.15,2013-01-10 18:08:00,
2013-01-10 13:13:00,51.6,28.0,30.49,NNW,337,2.0,6.0,40,0.00,,,0.00,Wunderground v.1.15,2013-01-10 18:13:00,
2013-01-10 13:19:00,51.6,28.0,30.49,North,3,1.0,6.0,40,0.00,,,0.00,Wunderground v.1.15,2013-01-10 18:19:00,
2013-01-10 13:24:00,51.6,28.0,30.49,NNE,30,1.0,7.0,40,0.00,,,0.00,Wunderground v.1.15,2013-01-10 18:24:00,
2013-01-10 13:29:00,51.7,27.5,30.48,NNW,344,1.0,7.0,39,0.00,,,0.00,Wunderground v.1.15,2013-01-10 18:29:00,
2013-01-10 13:36:00,52.2,28.6,30.48,North,6,1.0,7.0,40,0.00,,,0.00,Wunderground v.1.15,2013-01-10 18:36:00,
2013-01-10 13:41:00,52.0,27.8,30.48,North,0,1.0,1.0,39,0.00,,,0.00,Wunderground v.1.15,2013-01-10 18:41:00,
2013-01-10 13:47:00,52.2,27.3,30.48,North,3,1.0,13.0,38,0.00,,,0.00,Wunderground v.1.15,2013-01-10 18:47:00,
2013-01-10 13:52:00,52.2,26.7,30.48,WNW,295,2.0,2.0,37,0.00,,,0.00,Wunderground v.1.15,2013-01-10 18:52:00,
2013-01-10 13:57:00,52.2,28.0,30.48,NNE,24,1.0,2.0,39,0.00,,,0.00,Wunderground v.1.15,2013-01-10 18:57:00,
2013-01-10 14:02:00,52.5,26.3,30.48,NE,34,1.0,2.0,36,0.00,,,0.00,Wunderground v.1.15,2013-01-10 19:02:00,
2013-01-10 14:07:00,52.3,27.4,30.48,NNE,17,2.0,4.0,38,0.00,,,0.00,Wunderground v.1.15,2013-01-10 19:07:00,
2013-01-10 14:13:00,52.5,26.9,30.48,NNW,344,1.0,1.0,37,0.00,,,0.00,Wunderground v.1.15,2013-01-10 19:13:00,
2013-01-10 14:18:00,52.3,26.1,30.47,WNW,295,1.0,1.0,36,0.00,,,0.00,Wunderground v.1.15,2013-01-10 19:18:00,
2013-01-10 14:23:00,52.3,26.8,30.47,North,10,0.0,7.0,37,0.00,,,0.00,Wunderground v.1.15,2013-01-10 19:23:00,
2013-01-10 14:28:00,52.5,26.9,30.47,North,0,1.0,7.0,37,0.00,,,0.00,Wunderground v.1.15,2013-01-10 19:28:00,
2013-01-10 14:34:00,52.5,27.6,30.47,North,10,1.0,4.0,38,0.00,,,0.00,Wunderground v.1.15,2013-01-10 19:34:00,
2013-01-10 14:39:00,52.5,26.9,30.47,NNW,346,1.0,4.0,37,0.00,,,0.00,Wunderground v.1.15,2013-01-10 19:39:00,
2013-01-10 14:44:00,52.3,27.4,30.47,North,6,1.0,2.0,38,0.00,,,0.00,Wunderground v.1.15,2013-01-10 19:44:00,
2013-01-10 14:51:00,52.3,26.8,30.47,NNW,347,1.0,1.0,37,0.00,,,0.00,Wunderground v.1.15,2013-01-10 19:51:00,
2013-01-10 14:56:00,52.3,27.4,30.47,North,0,0.0,1.0,38,0.00,,,0.00,Wunderground v.1.15,2013-01-10 19:56:00,
2013-01-10 15:01:00,52.3,27.4,30.47,NNE,24,1.0,1.0,38,0.00,,,0.00,Wunderground v.1.15,2013-01-10 20:01:00,
2013-01-10 15:07:00,52.5,26.9,30.47,North,0,1.0,4.0,37,0.00,,,0.00,Wunderground v.1.15,2013-01-10 20:07:00,
2013-01-10 15:12:00,52.5,26.9,30.47,North,3,1.0,1.0,37,0.00,,,0.00,Wunderground v.1.15,2013-01-10 20:12:00,
2013-01-10 15:17:00,52.5,26.9,30.47,North,3,1.0,4.0,37,0.00,,,0.00,Wunderground v.1.15,2013-01-10 20:17:00,
2013-01-10 15:22:00,52.5,26.3,30.47,North,353,2.0,6.0,36,0.00,,,0.00,Wunderground v.1.15,2013-01-10 20:22:00,
2013-01-10 15:27:00,52.5,26.9,30.47,North,6,1.0,6.0,37,0.00,,,0.00,Wunderground v.1.15,2013-01-10 20:27:00,
2013-01-10 15:32:00,52.5,26.9,30.47,NW,316,0.0,1.0,37,0.00,,,0.00,Wunderground v.1.15,2013-01-10 20:32:00,
2013-01-10 15:37:00,52.5,26.9,30.47,NNW,339,0.0,1.0,37,0.00,,,0.00,Wunderground v.1.15,2013-01-10 20:37:00,
2013-01-10 15:43:00,52.5,26.9,30.47,NNE,31,0.0,2.0,37,0.00,,,0.00,Wunderground v.1.15,2013-01-10 20:43:00,
2013-01-10 15:49:00,52.5,27.6,30.47,NNE,31,0.0,2.0,38,0.00,,,0.00,Wunderground v.1.15,2013-01-10 20:49:00,
2013-01-10 15:54:00,52.3,26.8,30.47,NNE,23,0.0,0.0,37,0.00,,,0.00,Wunderground v.1.15,2013-01-10 20:54:00,
2013-01-10 15:59:00,52.2,26.7,30.47,NE,37,0.0,0.0,37,0.00,,,0.00,Wunderground v.1.15,2013-01-10 20:59:00,
2013-01-10 16:06:00,52.2,27.3,30.47,NE,37,0.0,0.0,38,0.00,,,0.00,Wunderground v.1.15,2013-01-10 21:06:00,
2013-01-10 16:11:00,52.2,27.3,30.47,NE,37,0.0,0.0,38,0.00,,,0.00,Wunderground v.1.15,2013-01-10 21:11:00,
2013-01-10 16:16:00,52.0,27.1,30.47,NE,37,0.0,0.0,38,0.00,,,0.00,Wunderground v.1.15,2013-01-10 21:16:00,
2013-01-10 16:22:00,52.0,27.8,30.47,North,6,0.0,0.0,39,0.00,,,0.00,Wunderground v.1.15,2013-01-10 21:22:00,
2013-01-10 16:27:00,51.9,27.1,30.47,NNE,30,0.0,4.0,38,0.00,,,0.00,Wunderground v.1.15,2013-01-10 21:27:00,
2013-01-10 16:32:00,51.7,27.5,30.47,NNE,23,0.0,0.0,39,0.00,,,0.00,Wunderground v.1.15,2013-01-10 21:32:00,
2013-01-10 16:38:00,51.7,27.5,30.47,NNE,23,0.0,0.0,39,0.00,,,0.00,Wunderground v.1.15,2013-01-10 21:38:00,
2013-01-10 16:44:00,51.6,27.4,30.46,NNE,23,0.0,0.0,39,0.00,,,0.00,Wunderground v.1.15,2013-01-10 21:44:00,
2013-01-10 16:49:00,51.4,27.9,30.46,NNE,24,0.0,0.0,40,0.00,,,0.00,Wunderground v.1.15,2013-01-10 21:49:00,
2013-01-10 16:54:00,51.3,28.4,30.46,NNE,31,0.0,0.0,41,0.00,,,0.00,Wunderground v.1.15,2013-01-10 21:54:00,
2013-01-10 17:01:00,51.0,28.7,30.47,NE,40,0.0,0.0,42,0.00,,,0.00,Wunderground v.1.15,2013-01-10 22:01:00,
2013-01-10 17:07:00,50.8,28.5,30.47,NE,40,0.0,0.0,42,0.00,,,0.00,Wunderground v.1.15,2013-01-10 22:07:00,
2013-01-10 17:12:00,50.5,28.2,30.47,NE,40,0.0,0.0,42,0.00,,,0.00,Wunderground v.1.15,2013-01-10 22:12:00,
2013-01-10 17:17:00,50.4,28.7,30.47,NE,40,0.0,0.0,43,0.00,,,0.00,Wunderground v.1.15,2013-01-10 22:17:00,
2013-01-10 17:22:00,50.2,29.1,30.47,NE,40,0.0,0.0,44,0.00,,,0.00,Wunderground v.1.15,2013-01-10 22:22:00,
2013-01-10 17:27:00,49.9,28.8,30.47,NE,40,0.0,0.0,44,0.00,,,0.00,Wunderground v.1.15,2013-01-10 22:27:00,
2013-01-10 17:33:00,49.8,29.3,30.46,NE,40,0.0,0.0,45,0.00,,,0.00,Wunderground v.1.15,2013-01-10 22:33:00,
2013-01-10 17:38:00,49.5,29.0,30.46,NE,40,0.0,0.0,45,0.00,,,0.00,Wunderground v.1.15,2013-01-10 22:38:00,
2013-01-10 17:43:00,49.2,29.3,30.46,NE,40,0.0,0.0,46,0.00,,,0.00,Wunderground v.1.15,2013-01-10 22:43:00,
2013-01-10 17:48:00,49.1,29.7,30.46,NE,40,0.0,0.0,47,0.00,,,0.00,Wunderground v.1.15,2013-01-10 22:48:00,
2013-01-10 17:53:00,48.9,29.5,30.46,NE,40,0.0,0.0,47,0.00,,,0.00,Wunderground v.1.15,2013-01-10 22:53:00,
2013-01-10 17:58:00,48.8,30.0,30.46,NE,40,0.0,0.0,48,0.00,,,0.00,Wunderground v.1.15,2013-01-10 22:58:00,
2013-01-10 18:04:00,48.6,29.3,30.47,NE,40,0.0,0.0,47,0.00,,,0.00,Wunderground v.1.15,2013-01-10 23:04:00,
2013-01-10 18:09:00,48.3,29.0,30.47,NE,40,0.0,0.0,47,0.00,,,0.00,Wunderground v.1.15,2013-01-10 23:09:00,
2013-01-10 18:16:00,48.2,29.4,30.47,NE,40,0.0,0.0,48,0.00,,,0.00,Wunderground v.1.15,2013-01-10 23:16:00,
2013-01-10 18:21:00,47.9,29.1,30.47,NE,40,0.0,0.0,48,0.00,,,0.00,Wunderground v.1.15,2013-01-10 23:21:00,
2013-01-10 18:26:00,47.7,29.5,30.47,NE,40,0.0,0.0,49,0.00,,,0.00,Wunderground v.1.15,2013-01-10 23:26:00,
2013-01-10 18:31:00,47.6,29.9,30.48,NE,40,0.0,0.0,50,0.00,,,0.00,Wunderground v.1.15,2013-01-10 23:31:00,
2013-01-10 18:37:00,47.4,29.7,30.48,NE,40,0.0,0.0,50,0.00,,,0.00,Wunderground v.1.15,2013-01-10 23:37:00,
2013-01-10 18:42:00,47.3,30.1,30.48,NE,40,0.0,0.0,51,0.00,,,0.00,Wunderground v.1.15,2013-01-10 23:42:00,
2013-01-10 18:47:00,47.1,30.4,30.47,NE,40,0.0,0.0,52,0.00,,,0.00,Wunderground v.1.15,2013-01-10 23:47:00,
2013-01-10 18:52:00,47.0,30.3,30.47,NE,40,0.0,0.0,52,0.00,,,0.00,Wunderground v.1.15,2013-01-10 23:52:00,
2013-01-10 18:57:00,46.8,30.6,30.47,NE,40,0.0,0.0,53,0.00,,,0.00,Wunderground v.1.15,2013-01-10 23:57:00,
2013-01-10 19:02:00,46.7,30.5,30.48,NE,40,0.0,0.0,53,0.00,,,0.00,Wunderground v.1.15,2013-01-11 00:02:00,
2013-01-10 19:08:00,46.5,30.3,30.48,NE,40,0.0,0.0,53,0.00,,,0.00,Wunderground v.1.15,2013-01-11 00:08:00,
2013-01-10 19:13:00,46.5,30.3,30.48,NE,40,0.0,0.0,53,0.00,,,0.00,Wunderground v.1.15,2013-01-11 00:13:00,
2013-01-10 19:18:00,46.4,30.2,30.48,NE,40,0.0,0.0,53,0.00,,,0.00,Wunderground v.1.15,2013-01-11 00:18:00,
2013-01-10 19:23:00,46.4,30.6,30.48,NE,40,0.0,0.0,54,0.00,,,0.00,Wunderground v.1.15,2013-01-11 00:23:00,
2013-01-10 19:28:00,46.2,30.0,30.48,NE,40,0.0,0.0,53,0.00,,,0.00,Wunderground v.1.15,2013-01-11 00:28:00,
2013-01-10 19:34:00,46.2,30.5,30.48,NE,40,0.0,0.0,54,0.00,,,0.00,Wunderground v.1.15,2013-01-11 00:34:00,
2013-01-10 19:39:00,46.1,30.4,30.48,NE,40,0.0,0.0,54,0.00,,,0.00,Wunderground v.1.15,2013-01-11 00:39:00,
2013-01-10 19:44:00,46.1,30.4,30.48,NE,40,0.0,0.0,54,0.00,,,0.00,Wunderground v.1.15,2013-01-11 00:44:00,
2013-01-10 19:51:00,46.0,31.2,30.48,NE,40,0.0,0.0,56,0.00,,,0.00,Wunderground v.1.15,2013-01-11 00:51:00,
2013-01-10 19:56:00,45.8,31.0,30.48,NE,40,0.0,0.0,56,0.00,,,0.00,Wunderground v.1.15,2013-01-11 00:56:00,
2013-01-10 20:01:00,45.8,31.4,30.48,NE,41,0.0,0.0,57,0.00,,,0.00,Wunderground v.1.15,2013-01-11 01:01:00,
2013-01-10 20:07:00,45.7,30.9,30.48,NE,41,0.0,0.0,56,0.00,,,0.00,Wunderground v.1.15,2013-01-11 01:07:00,
2013-01-10 20:12:00,45.7,30.9,30.48,NE,41,0.0,0.0,56,0.00,,,0.00,Wunderground v.1.15,2013-01-11 01:12:00,
2013-01-10 20:17:00,45.5,30.7,30.48,NE,41,0.0,0.0,56,0.00,,,0.00,Wunderground v.1.15,2013-01-11 01:17:00,
2013-01-10 20:22:00,45.5,30.7,30.48,NE,41,0.0,0.0,56,0.00,,,0.00,Wunderground v.1.15,2013-01-11 01:22:00,
2013-01-10 20:27:00,45.4,30.6,30.48,NE,41,0.0,0.0,56,0.00,,,0.00,Wunderground v.1.15,2013-01-11 01:27:00,
2013-01-10 20:32:00,45.4,30.6,30.48,SE,130,0.0,0.0,56,0.00,,,0.00,Wunderground v.1.15,2013-01-11 01:32:00,
2013-01-10 20:37:00,45.2,30.4,30.48,SE,130,0.0,0.0,56,0.00,,,0.00,Wunderground v.1.15,2013-01-11 01:37:00,
2013-01-10 20:43:00,45.2,30.4,30.48,SE,130,0.0,0.0,56,0.00,,,0.00,Wunderground v.1.15,2013-01-11 01:43:00,
2013-01-10 20:48:00,45.1,30.3,30.48,SE,130,0.0,0.0,56,0.00,,,0.00,Wunderground v.1.15,2013-01-11 01:48:00,
2013-01-10 20:53:00,44.9,30.1,30.48,SE,130,0.0,0.0,56,0.00,,,0.00,Wunderground v.1.15,2013-01-11 01:53:00,
2013-01-10 20:58:00,44.8,30.0,30.48,SE,130,0.0,0.0,56,0.00,,,0.00,Wunderground v.1.15,2013-01-11 01:58:00,
2013-01-10 21:04:00,44.6,30.3,30.48,SE,130,0.0,0.0,57,0.00,,,0.00,Wunderground v.1.15,2013-01-11 02:04:00,
2013-01-10 21:09:00,44.5,30.2,30.48,SE,130,0.0,0.0,57,0.00,,,0.00,Wunderground v.1.15,2013-01-11 02:09:00,
2013-01-10 21:14:00,44.3,30.0,30.48,SE,130,0.0,0.0,57,0.00,,,0.00,Wunderground v.1.15,2013-01-11 02:14:00,
2013-01-10 21:21:00,44.2,29.9,30.48,SE,130,0.0,0.0,57,0.00,,,0.00,Wunderground v.1.15,2013-01-11 02:21:00,
2013-01-10 21:26:00,44.1,29.8,30.48,SE,130,0.0,0.0,57,0.00,,,0.00,Wunderground v.1.15,2013-01-11 02:26:00,
2013-01-10 21:32:00,43.8,29.5,30.48,SE,130,0.0,0.0,57,0.00,,,0.00,Wunderground v.1.15,2013-01-11 02:32:00,
2013-01-10 21:37:00,43.6,29.8,30.48,SE,130,0.0,0.0,58,0.00,,,0.00,Wunderground v.1.15,2013-01-11 02:37:00,
2013-01-10 21:42:00,43.5,29.7,30.48,SE,130,0.0,0.0,58,0.00,,,0.00,Wunderground v.1.15,2013-01-11 02:42:00,
2013-01-10 21:47:00,43.2,29.4,30.48,SE,130,0.0,0.0,58,0.00,,,0.00,Wunderground v.1.15,2013-01-11 02:47:00,
2013-01-10 21:52:00,43.1,29.7,30.48,SE,130,0.0,0.0,59,0.00,,,0.00,Wunderground v.1.15,2013-01-11 02:52:00,
2013-01-10 21:58:00,42.8,29.5,30.48,SE,130,0.0,0.0,59,0.00,,,0.00,Wunderground v.1.15,2013-01-11 02:58:00,
2013-01-10 22:03:00,42.6,29.3,30.48,SE,130,0.0,0.0,59,0.00,,,0.00,Wunderground v.1.15,2013-01-11 03:03:00,
2013-01-10 22:09:00,42.5,29.2,30.48,SE,130,0.0,0.0,59,0.00,,,0.00,Wunderground v.1.15,2013-01-11 03:09:00,
2013-01-10 22:14:00,42.3,29.4,30.48,SE,130,0.0,0.0,60,0.00,,,0.00,Wunderground v.1.15,2013-01-11 03:14:00,
2013-01-10 22:19:00,42.2,29.3,30.48,SE,130,0.0,0.0,60,0.00,,,0.00,Wunderground v.1.15,2013-01-11 03:19:00,
2013-01-10 22:24:00,42.1,29.2,30.48,SE,130,0.0,0.0,60,0.00,,,0.00,Wunderground v.1.15,2013-01-11 03:24:00,
2013-01-10 22:31:00,41.9,29.4,30.48,SE,130,0.0,0.0,61,0.00,,,0.00,Wunderground v.1.15,2013-01-11 03:31:00,
2013-01-10 22:36:00,41.8,29.3,30.48,SE,130,0.0,0.0,61,0.00,,,0.00,Wunderground v.1.15,2013-01-11 03:36:00,
2013-01-10 22:41:00,41.6,29.1,30.48,NE,51,0.0,0.0,61,0.00,,,0.00,Wunderground v.1.15,2013-01-11 03:41:00,
2013-01-10 22:46:00,41.6,29.5,30.47,NE,51,0.0,0.0,62,0.00,,,0.00,Wunderground v.1.15,2013-01-11 03:46:00,
2013-01-10 22:52:00,41.5,29.4,30.47,NE,51,0.0,0.0,62,0.00,,,0.00,Wunderground v.1.15,2013-01-11 03:52:00,
2013-01-10 22:57:00,41.5,29.4,30.47,NE,51,0.0,0.0,62,0.00,,,0.00,Wunderground v.1.15,2013-01-11 03:57:00,
2013-01-10 23:02:00,41.3,29.3,30.47,NE,51,0.0,0.0,62,0.00,,,0.00,Wunderground v.1.15,2013-01-11 04:02:00,
2013-01-10 23:07:00,41.3,29.6,30.47,NE,51,0.0,0.0,63,0.00,,,0.00,Wunderground v.1.15,2013-01-11 04:07:00,
2013-01-10 23:13:00,41.2,29.5,30.47,ESE,113,0.0,0.0,63,0.00,,,0.00,Wunderground v.1.15,2013-01-11 04:13:00,
2013-01-10 23:18:00,41.2,29.5,30.47,ESE,117,0.0,0.0,63,0.00,,,0.00,Wunderground v.1.15,2013-01-11 04:18:00,
2013-01-10 23:23:00,41.2,29.9,30.47,ESE,117,0.0,0.0,64,0.00,,,0.00,Wunderground v.1.15,2013-01-11 04:23:00,
2013-01-10 23:28:00,41.2,29.9,30.47,ESE,117,0.0,0.0,64,0.00,,,0.00,Wunderground v.1.15,2013-01-11 04:28:00,
2013-01-10 23:34:00,41.2,29.9,30.47,East,92,0.0,0.0,64,0.00,,,0.00,Wunderground v.1.15,2013-01-11 04:34:00,
2013-01-10 23:39:00,41.3,29.6,30.47,ENE,72,0.0,0.0,63,0.00,,,0.00,Wunderground v.1.15,2013-01-11 04:39:00,
2013-01-10 23:44:00,41.3,29.6,30.47,ESE,103,0.0,0.0,63,0.00,,,0.00,Wunderground v.1.15,2013-01-11 04:44:00,
2013-01-10 23:49:00,41.5,29.8,30.47,ESE,103,0.0,0.0,63,0.00,,,0.00,Wunderground v.1.15,2013-01-11 04:49:00,
2013-01-10 23:56:00,41.5,29.8,30.47,ESE,103,0.0,0.0,63,0.00,,,0.00,Wunderground v.1.15,2013-01-11 04:56:00,